Location: Unspecified
(0.0000°N, 0.0000°E)
Time: 18:48:48
(UTC+00:00)

Vela 4A - Visible Passes

Search period start: 14 January 2025 00:00
Search period end: 24 January 2025 00:00
Orbit: 55827 x 166816 km, 37.2° (Epoch: 09 July)

Date Brightness Start Highest point End Pass type
(mag) Time Alt. Az. Time Alt. Az. Time Alt. Az.
14 Jan ? 22:08:30 10° ENE 04:22:27 69° N 10:32:39 10° W visible
16 Jan ? 12:57:29 10° E 18:59:25 77° N 01:00:32 10° WNW visible
17 Jan ? 16:36:34 10° ENE 22:09:18 54° N 03:48:26 10° NW visible
18 Jan ? 19:32:30 10° NE 01:16:16 53° N 06:55:55 10° WNW daylight
19 Jan ? 23:29:31 10° ENE 06:07:53 82° SSE 19:50:04 10° WSW visible
21 Jan ? 14:10:57 10° ENE 19:52:40 65° N 01:42:43 10° WNW visible
22 Jan ? 17:16:27 10° NE 22:49:52 52° N 04:26:52 10° NW visible
